User: anonymous   Login
Location: La Comballaz
(46.3780°N, 7.0817°E)
Time: 22:30:28
(UTC+00:00)
Language:

NANOSAT C BR1 - Orbit

View from above orbital plane
View from above orbital plane
View from above satellite
View from above satellite

Ground track
Ground track

The orbit data is extracted from the following two-line orbital elements,

1 40024U 14033Q   24050.87801889  .00008448  00000-0  67606-3 0  9993
2 40024  98.0608  18.4443 0010115 185.8696 174.2410 15.00413372525498
Epoch (UTC): 19 February 2024 21:04:20
Eccentricity: 0.0010115
inclination: 98.0608°
perigee height: 558 km
apogee height: 572 km
right ascension of ascending node: 18.4443°
argument of perigee: 185.8696°
revolutions per day: 15.00413372
mean anomaly at epoch: 174.2410°
orbit number at epoch: 52549

The dashed part of the orbit path shows where the satellite is in the earth's shadow,  

DLR